Miscellaneous Local Product
Issued by NWS Hastings, NE

Home | Current Version | Previous Version | Graphics & Text | Print | Product List | Glossary On
Versions: 1 2 3 4 5 6 7 8 9 10 11 12 13 14 15 16 17 18 19 20 21 22 23 24 25 26 27 28 29 30 31 32 33 34 35 36 37 38 39 40 41 42 43 44 45 46 47 48 49 50
101
AXUS43 KGID 270402
MISGRI

GID CWA HOURLY WEATHER ROUNDUP
NATIONAL WEATHER SERVICE HASTINGS NE
1100 PM CDT MON SEP 26 2016

NOTE: "FAIR" INDICATES FEW OR NO CLOUDS BELOW 12,000 FEET WITH NO
SIGNIFICANT WEATHER AND/OR OBSTRUCTIONS TO VISIBILITY.

...SOUTH CENTRAL NEBRASKA...

CITY           SKY/WX    TMP DP  RH WIND       PRES   REMARKS
GRAND ISLAND   CLEAR     54  45  71 SW5       30.14S
HASTINGS       CLEAR     58  43  57 CALM      30.15S HAZE
KEARNEY        CLEAR     57  39  51 CALM      30.15S
ORD            CLEAR     47  42  83 CALM      30.12F
YORK           CLEAR     54  46  76 W5        30.12F
AURORA         CLEAR     51  47  83 CALM      30.13S
LEXINGTON      CLEAR     51  44  78 CALM      30.17S
HOLDREGE       CLEAR     51  44  76 CALM      30.16S
HEBRON         CLEAR     52  45  77 CALM      30.13F

...NEBRASKA PANHANDLE...

CITY           SKY/WX    TMP DP  RH WIND       PRES   REMARKS
CHADRON        CLEAR     49  42  77 SW3       30.22F
ALLIANCE       CLOUDY    44  40  85 CALM      30.24S
SCOTTSBLUFF    CLEAR     55  43  63 SW3       30.26S
SIDNEY         CLEAR     47  39  74 W5        30.29S

...WESTERN AND NORTH CENTRAL NEBRASKA...

CITY           SKY/WX    TMP DP  RH WIND       PRES   REMARKS
VALENTINE      CLEAR     55  37  50 NW8       30.16F
AINSWORTH      CLEAR     56  42  59 NW8       30.15S
ONEILL         CLEAR     54  42  65 W3        30.12S
BROKEN BOW     CLEAR     44  40  85 CALM      30.15F
IMPERIAL       CLEAR     54  41  61 W6        30.22S
NORTH PLATTE   CLEAR     49  41  74 CALM      30.19S
MCCOOK         CLEAR     53  46  77 W6        30.18S

...EASTERN NEBRASKA...

CITY           SKY/WX    TMP DP  RH WIND       PRES   REMARKS
NORFOLK        CLEAR     51  44  77 CALM      30.09F
SO SIOUX CITY  CLEAR     58  44  60 NW3       30.06S
TEKAMAH        CLEAR     50  44  80 CALM      30.06F
COLUMBUS       CLEAR    N/A N/A N/A CALM      30.10S
ALBION         CLEAR     48  44  85 CALM      30.11F
OMAHA EPPLEY   CLEAR     58  49  72 CALM      30.07F
OFFUTT AFB     CLEAR     54  48  80 SW2       30.07S
MILLARD        CLEAR     55  50  82 CALM      30.08S
LINCOLN        CLEAR     55  46  71 CALM      30.11F
NEBRASKA CITY  CLEAR     59  36  41 W5        30.09S
BEATRICE       CLEAR     55  47  73 W3        30.12S
FALLS CITY     CLEAR     58  47  66 W5        30.08S

...NORTHERN KANSAS...

CITY           SKY/WX    TMP DP  RH WIND       PRES   REMARKS
GOODLAND       CLEAR     53  41  63 CALM      30.24S
HILL CITY      CLEAR     52  47  83 W5        30.17F
NORTON         CLEAR     54  39  58 SW7       30.16F
PHILLIPSBURG   CLEAR     54  46  76 W6        30.16S
SMITH CENTER   CLEAR     54  45  71 N5        30.16S
HAYS           CLEAR     55  37  50 CALM      30.17F
RUSSELL        CLEAR     57  45  64 S10       30.15F
CONCORDIA      CLEAR     63  42  46 SW13      30.13S
SALINA         CLEAR     55  48  77 S7        30.15S
TOPEKA         CLEAR     56  51  84 CALM      30.12F



USA.gov is the U.S. government's official web portal to all federal, state and local government web resources and services.